#timestamp,LO_Frequency,Hit,StdDev 
1544702415.7,286047007.3,P
1544702435.6,286047008.5,N
1544702455.4,286047010.3,N
1544702475.3,286047009.4,N
1544702495.1,286047010.2,N
1544702496.0,286047010.2,Y
1544702515.8,286046998.5,P
1544702535.7,286046996.6,N
1544702555.5,286046996.7,N
1544702575.3,286046997.6,N
1544702595.2,286046993.3,N
1544702615.0,286046993.0,N
1544702615.9,286046993.0,N
1544702635.8,286046990.7,N
1544702655.6,286046990.1,N
1544702675.4,286046991.3,N
1544702695.3,286046993.0,N
1544702715.1,286046990.4,N
1544702735.8,286046989.1,N
1544702755.7,286046991.1,N
1544702805.5,286046990.8,E
1544702815.5,286046993.3,N
1544702835.3,286047000.6,P
1544702855.1,286047004.4,N
1544702875.9,286047003.8,N
1544702895.7,286047001.3,N
1544702915.6,286047003.5,N
1544702935.4,286047002.9,N
1544702955.2,286047007.6,N
1544702975.1,286047004.6,N
1544702976.0,286047004.6,N
1544702995.8,286047002.9,N
1544703015.6,286047003.0,N
1544703035.5,286047004.6,N
1544703055.3,286047004.5,N
1544703075.2,286047005.3,N
1544703095.9,286047002.9,N
1544703115.7,286047005.1,N
1544703135.6,286047006.9,N
1544703155.4,286047008.0,N
1544703175.2,286047006.9,N
1544703195.1,286047006.4,N
1544703196.0,286047006.4,N
1544703215.8,286047007.1,N
1544703235.7,286047010.2,Y
1544703255.5,286047005.2,P
1544703275.3,286047007.6,P
1544703295.2,286047007.5,P
1544703315.0,286047007.6,Y
1544703315.9,286047007.6,P
1544703335.7,286046998.1,N
1544703355.6,286047002.2,N
1544703375.4,286047002.0,N
1544703395.3,286047002.5,N
1544703415.1,286046999.7,N
1544703416.0,286046999.7,N
1544703435.8,286047000.2,N
1544703455.7,286047000.1,N
1544703475.5,286047002.0,N
1544703495.3,286047001.4,N
1544703515.2,286047001.9,N
1544703535.0,286047002.6,N
1544703535.9,286047002.6,N
1544703555.8,286047002.3,N
1544703575.6,286047003.2,N
1544703595.4,286047002.4,N
1544703615.3,286047000.1,N
1544703635.1,286047002.2,N
1544703655.8,286047005.8,N
1544703675.7,286047001.3,N
1544703695.5,286046999.8,N
1544703715.4,286047001.0,N
1544703735.2,286047002.0,N
1544703755.0,286047007.3,Y
1544703755.9,286047007.3,P
1544703775.8,286047003.4,N
1544703795.6,286047005.2,N
1544703815.5,286047006.8,Y
1544703835.3,286047000.3,P
1544703855.1,286046999.4,N
1544703875.9,286046997.2,N
1544703895.7,286046997.8,N
1544703915.5,286046995.3,N
1544703935.4,286046995.1,N
1544703955.2,286046995.5,N
1544703975.0,286046998.0,N
1544703976.0,286046998.0,N
1544703995.8,286046995.7,N
1544704015.6,286046994.1,N
1544704035.5,286046993.9,N
1544704055.3,286046990.1,Y
1544704075.1,286046992.1,P
1544704095.9,286046990.1,P
1544704115.7,286046992.8,N
1544704135.6,286046991.3,Y
1544704155.4,286046997.8,P
1544704175.2,286046994.9,N
1544704195.1,286046995.6,N
1544704196.0,286046995.6,N
1544704215.8,286046996.4,N
1544704235.7,286046993.6,Y
1544704255.5,286047003.2,P
1544704275.3,286047001.5,N
1544704295.2,286047001.6,N
1544704315.0,286047002.4,N
1544704315.9,286047002.4,N
1544704335.8,286047005.4,N
1544704355.6,286047008.2,N
1544704375.4,286047008.6,N
1544704395.3,286047009.1,N
1544704415.1,286047007.1,N
1544704435.8,286047004.7,N
1544704455.7,286047003.1,N
1544704475.5,286047001.5,N
1544704495.4,286047005.6,N
1544704515.2,286047003.6,N
1544704535.0,286047005.7,N
1544704535.9,286047005.7,N
1544704555.8,286047005.8,N
1544704575.6,286047005.7,N
1544704595.4,286047002.9,N
1544704615.3,286047001.8,N
1544704635.1,286047002.1,N
1544704655.9,286046999.7,N
1544704675.7,286047001.0,N
1544704695.5,286046998.3,N
1544704715.4,286046998.2,N
1544704735.2,286047000.6,N
1544704755.1,286046999.0,N
1544704756.0,286046999.0,N
1544704775.8,286046996.6,N
1544704795.6,286046996.6,N
1544704815.5,286046999.5,N
1544704835.3,286046997.1,N
1544704855.1,286046996.7,N
1544704875.9,286046994.9,N
1544704895.7,286046993.3,N
1544704915.6,286046991.7,N
1544704935.4,286046992.2,N
1544704955.2,286046992.2,N
1544704975.1,286046990.2,N
1544704976.0,286046990.2,N
1544704995.8,286046994.6,N
1544705015.7,286046994.1,N
1544705035.5,286046997.6,N
1544705055.3,286046997.5,N
1544705075.2,286046995.0,N
1544705095.0,286046996.4,N
1544705095.9,286046996.4,N
1544705115.8,286046994.1,N
1544705135.6,286046993.3,N
1544705155.4,286046992.1,N
1544705175.3,286046992.0,N
1544705195.1,286046992.9,N
1544705196.0,286046992.9,N
1544705215.8,286046991.1,Y
1544705235.7,286046997.7,P
1544705255.5,286046998.6,N
1544705275.4,286047001.0,N
1544705295.2,286047000.2,N
1544705315.0,286047000.7,N
1544705315.9,286047000.7,N
1544705335.8,286047000.9,N
1544705355.6,286047004.0,N
1544705375.4,286047006.4,N
1544705395.3,286047006.4,N
1544705415.1,286047008.7,N
1544705435.9,286047008.0,N
1544705455.7,286047007.5,N
1544705475.5,286047005.2,N
1544705495.4,286047007.6,N
1544705515.2,286047003.9,N
1544705535.0,286047000.2,N
1544705535.9,286047000.2,N
1544705555.8,286046999.4,N
1544705575.6,286046998.9,N
1544705595.5,286047011.9,Y
1544705615.3,286046996.2,P
1544705635.1,286046993.7,N
1544705655.9,286046993.4,N
1544705675.7,286046995.1,N
1544705695.5,286047000.8,N
1544705715.4,286047000.7,N
1544705735.2,286047005.6,N
1544705755.1,286047006.1,N
1544705756.0,286047006.1,N
1544705775.8,286047007.9,N
1544705795.6,286047009.1,N
1544705815.5,286047003.2,N
1544705835.3,286047008.1,N
1544705855.1,286047011.6,N
1544705875.9,286047007.9,N
1544705895.7,286047006.5,N
1544705915.6,286047006.8,N
1544705935.4,286047010.2,N
1544705955.2,286047011.3,N
1544705975.1,286047015.2,N
1544705976.0,286047015.2,N
1544705995.8,286047013.4,N
